Погода в Кеге

Вьетнам     10°42′36″N   107°59′43″E
темп.,
°C
ветер,
м/с
пор.,
м/с
влажн.,
%
обл.,
%
осадки,
мм/ч
давл.,
гПа
погр.,
м
17 мая, вт
вт1701:00+27з3482100 4.6 1008181
04:00+27з4584100 0.4 1008188
07:00+27ссз3383100 2.3 1009223
10:00+30всв547090 0.3 1010702
13:00+30в547274 0.4 1009858
16:00+29в6578100 0.8 1007779
19:00+28всв788395 1.1 1009563
22:00+28в5684100 0.1 1011475
18 мая, ср
ср1801:00+27в4585100 1.8 1009375
04:00+26юв128699 7.0 1009118
07:00+27вюв3382100 8.8 1011254
10:00+28юв1172100 0.0 1011470
13:00+29ю3370100 0.1 1009640
16:00+29ю4472100 0.1 1008649
19:00+28ююв3378100 0.6 1010336
22:00+27ююв1184100 4.5 101244
19 мая, чт
чт1901:00+27з1180100 6.8 1010160
04:00+26сз2283100 0.2 1010137
07:00+26ссз2283100 0.8 1011135
10:00+29юз1270100 0.0 1011567
13:00+29ююз557294 0.3 1008729
16:00+29ююз5572100 0.4 1007668
19:00+27юз3483100 2.4 1009207
22:00+27зюз2281100 5.4 101053
20 мая, пт
пт2001:00+26ю0185100 7.4 1009126
04:00+26зюз1388100 1.5 1009229
07:00+26зсз3489100 2.1 1010186
10:00+27зсз237996 0.0 1010314
13:00+28з4776100 0.0 1007501
16:00+28з367696 0.0 1006382
19:00+28зюз3478100 0.1 1007142
22:00+28з2378100 0.1 1008108
21 мая, сб
сб2101:00+27з4677100 0.1 1007205
04:00+26зсз4880100 0.0 1007312
07:00+27зсз5107893 0.0 1008543
10:00+30з7966100 0.0 1008952
13:00+32з71062100 0.0 1005834
16:00+31з686496 0.0 1004633
19:00+29зсз3674100 0.1 1005171
22:00+28зюз4576100 0.1 1007184